User: anonymous   Login
Location: Maiden
(35.5760°N, 81.2120°W)
Time: 22:02:08
(UTC-04:00)
Language:

Cosmos 1953 - Orbit

View from above orbital plane
View from above orbital plane
View from above satellite
View from above satellite

Ground track
Ground track

The orbit data is extracted from the following two-line orbital elements,

1 19210U 88050A   19111.10097464  .00000470  00000-0  30402-4 0  9992
2 19210  82.5135 100.6883 0014835 119.2152 241.0561 15.05746694679083
Epoch (UTC): 21 April 2019 02:25:24
Eccentricity: 0.0014835
inclination: 82.5135°
perigee height: 539 km
apogee height: 559 km
right ascension of ascending node: 100.6883°
argument of perigee: 119.2152°
revolutions per day: 15.05746694
mean anomaly at epoch: 241.0561°
orbit number at epoch: 67908

The dashed part of the orbit path shows where the satellite is in the earth's shadow,  

DLR